sat.trackr.live / text

‹ back to catalog

STARLINK-35787

NORAD 66978 · 2025-288V

PAYLOAD ACTIVE UNKNOWN

§ Identity

Operator
Country
US
Launch date
2025-12-08
Launch site
AFETR
Launch vehicle
Mass (kg)
RCS (m²)

Purposes: comms

External: N2YO · Heavens-Above · Gunter

§ Orbital elements

Epoch: 2026-09-20T07:10:54.301440Z

Period
94.27 min
Inclination
42.9994°
Eccentricity
0.0002630
Mean motion
15.27586327 rev/d
Perigee alt
481.2 km
Apogee alt
484.8 km
Semi-major
6,861.2 km
B*
5.6117e-4
RAAN
4.1226°
Arg perigee
282.8449°
Mean anomaly
77.2108°
Rev number
4,505

§ Raw data

STARLINK-357871 66978U 25288V   26263.29923960  .00015216  00000+0  56117-3 0  99972 66978  42.9994   4.1226 0002630 282.8449  77.2108 15.27586327 45053

JSON: /api/v1/satellites/66978 · /tle

For live sub-satellite position, see the globe view (requires WebGL).

§ Visibility from observer

Set your observer location to see the next 7 days of passes ≥ 10°. The values pass through the URL so the page stays shareable.

No JS? Fill the form by hand. The geolocation button needs JavaScript.